"Pseudo-MPEC" for C8KLZY2

Created 2022 Dec 10 2:22:08 UT using Find_Orb

Click here for an explanation of pseudo-MPECs

 
 Astrometry: 
     C8KLZY2*1C2022 12 01.46292908 31 23.567-01 40 56.46   ~C1Bq 19.81GVNEOCPG96
     C8KLZY2 1C2022 12 01.46812608 31 26.267-01 40 09.01   ~C1Bq       VNEOCPG96
     C8KLZY2 1C2022 12 01.47331608 31 29.006-01 39 21.82   ~C1Bq       VNEOCPG96
     C8KLZY2 1C2022 12 01.47850808 31 31.699-01 38 34.44   ~C1Bq 20.52GVNEOCPG96
     C8KLZY2 mC2022 12 01.51265008 31 49.433-01 33 20.27   ~C1Cbx20.68GVNEOCPI52
     C8KLZY2 mC2022 12 01.51294208 31 49.667-01 33 18.65   ~C1Cb       VNEOCPI52
     C8KLZY2 mC2022 12 01.51323308 31 49.843-01 33 16.99   ~C1Cb 19.87GVNEOCPI52
     C8KLZY2 mC2022 12 01.51351908 31 49.926-01 33 14.33   ~C1Cb 19.79GVNEOCPI52
     C8KLZY2 1C2022 12 02.39932308 40 25.579+00 52 23.45   ~C2A7 19.95GVNEOCPG96
     C8KLZY2 1C2022 12 02.40056808 40 26.335+00 52 36.80   ~C2A7 20.04GVNEOCPG96
     C8KLZY2 1C2022 12 02.40181508 40 27.091+00 52 50.41   ~C2A7 19.68GVNEOCPG96
     C8KLZY2 1C2022 12 02.40305908 40 27.815+00 53 03.23   ~C2A7 19.84GVNEOCPG96
     C8KLZY2 KC2022 12 09.04486010 52 04.913+32 57 21.64   ~C927 19.3 GVNEOCPJ95
     C8KLZY2 KC2022 12 09.05264110 52 20.890+33 00 10.91   ~C927 19.6 GVNEOCPJ95
     C8KLZY2 KC2022 12 09.05916310 52 34.320+33 02 31.81   ~C927 19.4 GVNEOCPJ95
     C8KLZY2 KC2022 12 09.06830610 52 53.179+33 05 49.63   ~C927 19.1 GVNEOCPJ95
     C8KLZY2 KC2022 12 09.07763010 53 12.418+33 09 11.66   ~C927 19.0 GVNEOCPJ95
     C8KLZY2 KC2022 12 09.99129211 27 11.978+38 21 17.86   ~CA0q 18.9 GVNEOCPJ95
     C8KLZY2 KC2022 12 10.00178911 27 36.967+38 24 42.16   ~CA0q 18.9 GVNEOCPJ95
     C8KLZY2 KC2022 12 10.01109211 27 59.189+38 27 42.70   ~CA0q 19.3 GVNEOCPJ95
     C8KLZY2 KC2022 12 10.02019711 28 20.933+38 30 39.64   ~CA0q 19.7 GVNEOCPJ95

Station data:
(G96) Mt. Lemmon Survey  (N32.442751 W110.788720)  US/Arizona.  Observers T.
   A. Pruyne, B. M. Africano, E. J. Christensen, G. A. Farneth, D. C. Fuls,
   A. R. Gibbs, A. D. Grauer, H. Gröller, J. A. Johnson, R. A. Kowalski, S.
   M. Larson, G. J. Leonard, D. Rankin, R. L. Seaman, F. C. Shelly, K. W.
   Wierzchoś. 1.5-m reflector + 10K CCD.
(I52) Steward Observatory, Mt. Lemmon Station  (N32.442544 W110.788920)
   US/Arizona.  Observers T. A. Pruyne, B. M. Africano, E. J. Christensen, G.
   A. Farneth, D. C. Fuls, A. R. Gibbs, A. D. Grauer, H. Gröller, J. A.
   Johnson, R. A. Kowalski, S. M. Larson, G. J. Leonard, D. Rankin, R. L.
   Seaman, F. C. Shelly, K. W. Wierzchoś. 1.0-m reflector + CCD.
(J95) Great Shefford  (N51.474969 W1.447003)  UK/England.  Observer P.
   Birtwhistle. 0.41-m f/6.3 Schmidt-Cassegrain + CCD.

Orbital elements:  C8KLZY2
   Perihelion 2023 Jan 26.52588 +/- 0.411 TT = 12:37:16 (JD 2459971.02588)
Epoch 2022 Dec 10.0 TT = JDT 2459923.5   Earth MOID: 0.0462   Ma: 0.0433
M 336.93879844 +/- 0.7              (J2000 ecliptic)             AutoNEOCP
n   0.48523460 +/- 0.0108           Peri.   72.97640 +/- 0.51
a   1.60386645 +/- 0.0237           Node    79.46401 +/- 0.039
e   0.5066276 +/- 0.00659           Incl.   46.10431 +/- 0.26
P   2.03/741.90d           H 21.96  G  0.15   U  9.7
q 0.79130329 +/- 0.00116    Q 2.41642960 +/- 0.0462
20 of 21 observations 2022 Dec. 1-10; mean residual 0".27
Residuals in arcseconds: 
221201 G96  .09-  .28-    221201 I52  .55-  .06-    221209 J95  .21-  .00     
221201 G96  .11-  .10-    221202 G96  .14-  .40-    221209 J95  .01-  .21-    
221201 G96  .49+  .16-    221202 G96  .05-  .24-    221209 J95  .06+  .04+    
221201 G96  .35+  .09-    221202 G96  .02+  .14+    221209 J95  .30+  .03-    
221201 I52( 1.1-  2.0+)   221202 G96  .36-  .23-    221210 J95  .26-  .01-    
221201 I52  .10+  .91+    221209 J95  .27+  .08-    221210 J95  .01-  .22-    
221201 I52  .45+  .10-    221209 J95  .19-  .45+    221210 J95  .04+  .09+    

Ephemerides (geocentric):
Date (UTC) HH   RA             Dec           delta  r     elong  mag " sig PA
---- --------  ------------   ------------  ------ ------ -----  --- --------
2022 12 10 02  11 30 47.752   +38 51 34.96  .10132 1.0068  99.6 19.7 .467 137
2022 12 10 03  11 32 28.350   +39 04 41.73  .10137 1.0065  99.5 19.7 .463 137
2022 12 10 04  11 34 09.464   +39 17 42.29  .10143 1.0062  99.3 19.7 .459 138
2022 12 10 05  11 35 51.084   +39 30 36.51  .10149 1.0059  99.1 19.7 .455 138
2022 12 10 06  11 37 33.205   +39 43 24.27  .10155 1.0056  98.9 19.7 .450 139
2022 12 10 07  11 39 15.819   +39 56 05.45  .10162 1.0052  98.7 19.7 .446 139
2022 12 10 08  11 40 58.918   +40 08 39.92  .10169 1.0049  98.5 19.7 .442 140
2022 12 10 09  11 42 42.494   +40 21 07.56  .10177 1.0046  98.3 19.7 .437 140
2022 12 10 10  11 44 26.539   +40 33 28.25  .10185 1.0043  98.1 19.7 .432 141
2022 12 10 11  11 46 11.045   +40 45 41.89  .10194 1.0040  98.0 19.7 .427 142
2022 12 10 12  11 47 56.002   +40 57 48.35  .10203 1.0037  97.8 19.7 .422 142
2022 12 10 13  11 49 41.402   +41 09 47.54  .10212 1.0034  97.6 19.7 .417 143
2022 12 10 14  11 51 27.234   +41 21 39.34  .10222 1.0031  97.4 19.7 .412 144
2022 12 10 15  11 53 13.490   +41 33 23.66  .10233 1.0028  97.2 19.8 .407 144
2022 12 10 16  11 55 00.158   +41 45 00.39  .10244 1.0025  97.0 19.8 .401 145
2022 12 10 17  11 56 47.230   +41 56 29.44  .10255 1.0022  96.8 19.8 .396 146
2022 12 10 18  11 58 34.695   +42 07 50.71  .10267 1.0018  96.6 19.8 .390 147
2022 12 10 19  12 00 22.540   +42 19 04.12  .10280 1.0015  96.4 19.8 .385 148
2022 12 10 20  12 02 10.757   +42 30 09.57  .10292 1.0012  96.3 19.8 .379 149
2022 12 10 21  12 03 59.333   +42 41 06.99  .10306 1.0009  96.1 19.8 .373 150
2022 12 10 22  12 05 48.256   +42 51 56.30  .10319 1.0006  95.9 19.8 .368 151
2022 12 10 23  12 07 37.515   +43 02 37.42  .10333 1.0003  95.7 19.8 .362 152
2022 12 11 00  12 09 27.099   +43 13 10.27  .10348 1.0000  95.5 19.8 .356 153
2022 12 11 01  12 11 16.993   +43 23 34.79  .10363 0.9997  95.3 19.8 .350 155
2022 12 11 02  12 13 07.186   +43 33 50.92  .10378 0.9994  95.1 19.8 .344 156
2022 12 11 03  12 14 57.666   +43 43 58.59  .10394 0.9991  94.9 19.9 .339 157
2022 12 11 04  12 16 48.419   +43 53 57.74  .10411 0.9988  94.8 19.9 .333 159
2022 12 11 05  12 18 39.432   +44 03 48.32  .10427 0.9985  94.6 19.9 .327 160
2022 12 11 06  12 20 30.691   +44 13 30.28  .10445 0.9982  94.4 19.9 .322 162
2022 12 11 07  12 22 22.184   +44 23 03.57  .10462 0.9978  94.2 19.9 .316 164
2022 12 11 08  12 24 13.896   +44 32 28.15  .10480 0.9975  94.0 19.9 .311 165
2022 12 11 09  12 26 05.813   +44 41 43.98  .10499 0.9972  93.8 19.9 .306 167
2022 12 11 10  12 27 57.922   +44 50 51.02  .10518 0.9969  93.6 19.9 .301 169
2022 12 11 11  12 29 50.208   +44 59 49.25  .10537 0.9966  93.5 19.9 .296 171
2022 12 11 12  12 31 42.656   +45 08 38.63  .10557 0.9963  93.3 19.9 .291 173
2022 12 11 13  12 33 35.253   +45 17 19.14  .10577 0.9960  93.1 19.9 .287 176
2022 12 11 14  12 35 27.984   +45 25 50.76  .10597 0.9957  92.9 20.0 .283 178
2022 12 11 15  12 37 20.834   +45 34 13.47  .10618 0.9954  92.7 20.0 .279   0
2022 12 11 16  12 39 13.787   +45 42 27.27  .10640 0.9951  92.5 20.0 .276   3
2022 12 11 17  12 41 06.831   +45 50 32.13  .10661 0.9948  92.4 20.0 .273   5
2022 12 11 18  12 42 59.948   +45 58 28.06  .10683 0.9945  92.2 20.0 .271   8
2022 12 11 19  12 44 53.125   +46 06 15.06  .10706 0.9942  92.0 20.0 .269  11
2022 12 11 20  12 46 46.346   +46 13 53.12  .10729 0.9939  91.8 20.0 .267  14
2022 12 11 21  12 48 39.596   +46 21 22.24  .10752 0.9936  91.6 20.0 .266  16
2022 12 11 22  12 50 32.859   +46 28 42.45  .10776 0.9933  91.5 20.0 .266  19
2022 12 11 23  12 52 26.122   +46 35 53.74  .10800 0.9930  91.3 20.0 .266  22
2022 12 12 00  12 54 19.369   +46 42 56.15  .10825 0.9926  91.1 20.1 .267  25
2022 12 12 01  12 56 12.584   +46 49 49.67  .10850 0.9923  90.9 20.1 .268  28